ZTF彗星

P/2022 P2 ( ZTF )

English version
Home page
Updated on November 26, 2022

---------------------------------------------------------------------

・ プロフィール

発見日 2022年8月15日
発見光度 18.5等
発見者 Zwicky Transient Facility

・ 写真集

・ 軌道要素

Epoch 2022 Aug. 9.0 TT = JDT 2459800.5
T 2022 July 10.93291 TT                                 Rudenko
q   1.9831661            (2000.0)            P               Q
n   0.10325469     Peri.  137.65656     +0.34533555     -0.91674066
a   4.4998309      Node   291.23827     +0.79295281     +0.39948270
e   0.5592799      Incl.   12.44231     +0.50196533     -0.00037410
P   9.55
>From 105 observations 2022 Aug. 15-Nov. 3, mean residual 0".7.

・ 光度変化

        m1 =  14.0 + 5 logΔ + 10.0 log r           [   , 30]  (              〜2022年 8月10日)
        m1 = -15   + 5 logΔ + 50   log r(t + 400)  [ 30,162]  (2022年 8月10日〜2022年12月20日)
        m1 =  14.0 + 5 logΔ + 10.0 log r           [162,   ]  (2022年12月20日〜              )

---------------------------------------------------------------------

軌道要素はM.P.E.C. 2022-V95に掲載されたものです。
光度グラフはComet for Windowsで作成したものです。

---------------------------------------------------------------------

Copyright(C) Seiichi Yoshida (comet@aerith.net). All rights reserved.